Time,TemperatureF,DewpointF,PressureIn,WindDirection,WindDirectionDegrees,WindSpeedMPH,WindSpeedGustMPH,Humidity,HourlyPrecipIn,Conditions,Clouds,dailyrainin,SoftwareType,DateUTC
2013-03-29 00:43:00,52.2,47.5,29.72,ESE,113,0.0,0.0,84,0.00,,,0.00,WUHU216HW,2013-03-29 07:43:00,
2013-03-29 00:48:00,52.2,47.5,29.64,ESE,113,0.0,0.0,84,0.00,,,0.00,WUHU216HW,2013-03-29 07:48:00,
2013-03-29 00:53:00,52.2,47.5,29.64,ESE,113,0.0,0.0,84,0.00,,,0.00,WUHU216HW,2013-03-29 07:53:00,
2013-03-29 01:00:00,51.8,47.2,29.69,ESE,113,0.0,0.0,84,0.00,,,0.00,WUHU216HW,2013-03-29 08:00:00,
2013-03-29 01:05:00,51.8,47.1,29.69,ESE,113,0.0,0.0,84,0.00,,,0.00,WUHU216HW,2013-03-29 08:05:00,
2013-03-29 01:10:00,51.8,47.1,29.69,ESE,113,0.0,0.0,84,0.00,,,0.00,WUHU216HW,2013-03-29 08:10:00,
2013-03-29 01:33:00,51.8,47.4,29.73,ESE,113,0.0,0.0,85,0.00,,,0.00,WUHU216HW,2013-03-29 08:33:00,
2013-03-29 01:38:00,51.8,47.4,29.49,ESE,113,0.0,0.0,85,0.00,,,0.00,WUHU216HW,2013-03-29 08:38:00,
2013-03-29 01:43:00,51.8,47.4,29.49,ESE,113,0.0,0.0,85,0.00,,,0.00,WUHU216HW,2013-03-29 08:43:00,
2013-03-29 01:48:00,51.8,47.4,29.49,ESE,113,0.0,0.0,85,0.00,,,0.00,WUHU216HW,2013-03-29 08:48:00,
2013-03-29 02:00:00,51.8,47.2,29.72,ESE,113,0.0,0.0,84,0.00,,,0.00,WUHU216HW,2013-03-29 09:00:00,
2013-03-29 02:01:00,51.8,47.1,29.70,ESE,113,0.0,0.0,84,0.00,,,0.00,WUHU216HW,2013-03-29 09:01:00,
2013-03-29 02:05:00,51.8,47.1,29.70,ESE,113,0.0,0.0,84,0.00,,,0.00,WUHU216HW,2013-03-29 09:05:00,
2013-03-29 02:10:00,51.8,47.1,29.70,ESE,113,0.0,0.0,84,0.00,,,0.00,WUHU216HW,2013-03-29 09:10:00,
2013-03-29 02:36:00,51.7,47.5,29.74,ESE,113,0.0,0.0,86,0.00,,,0.00,WUHU216HW,2013-03-29 09:36:00,
2013-03-29 02:41:00,51.7,47.6,29.70,ESE,113,0.0,0.0,86,0.00,,,0.00,WUHU216HW,2013-03-29 09:41:00,
2013-03-29 02:47:00,51.7,47.6,29.70,ESE,113,0.0,0.0,86,0.00,,,0.00,WUHU216HW,2013-03-29 09:47:00,
2013-03-29 03:00:00,51.7,47.5,29.73,ESE,113,0.0,0.0,86,0.00,,,0.00,WUHU216HW,2013-03-29 10:00:00,
2013-03-29 03:01:00,51.7,47.6,29.69,ESE,113,0.0,0.0,86,0.00,,,0.00,WUHU216HW,2013-03-29 10:01:00,
2013-03-29 03:05:00,51.7,47.6,29.69,ESE,113,0.0,0.0,86,0.00,,,0.00,WUHU216HW,2013-03-29 10:05:00,
2013-03-29 03:10:00,51.7,47.6,29.69,ESE,113,0.0,0.0,86,0.00,,,0.00,WUHU216HW,2013-03-29 10:10:00,
2013-03-29 03:35:00,51.3,47.5,29.73,West,270,0.0,0.0,87,0.00,,,0.00,WUHU216HW,2013-03-29 10:35:00,
2013-03-29 03:40:00,51.3,47.5,29.66,West,270,0.0,0.0,87,0.00,,,0.00,WUHU216HW,2013-03-29 10:40:00,
2013-03-29 03:45:00,51.3,47.5,29.66,West,270,0.0,0.0,87,0.00,,,0.00,WUHU216HW,2013-03-29 10:45:00,
2013-03-29 04:00:00,50.4,46.6,29.73,West,270,0.0,0.0,87,0.00,,,0.00,WUHU216HW,2013-03-29 11:00:00,
2013-03-29 04:05:00,50.4,46.7,29.72,West,270,0.0,0.0,87,0.00,,,0.00,WUHU216HW,2013-03-29 11:05:00,
2013-03-29 04:10:00,50.4,46.7,29.72,West,270,0.0,0.0,87,0.00,,,0.00,WUHU216HW,2013-03-29 11:10:00,
2013-03-29 04:38:00,49.7,46.5,29.74,West,270,0.2,0.2,89,0.00,,,0.00,WUHU216HW,2013-03-29 11:38:00,
2013-03-29 04:43:00,49.5,46.4,29.70,West,270,0.0,0.2,89,0.00,,,0.00,WUHU216HW,2013-03-29 11:43:00,
2013-03-29 04:48:00,49.5,46.4,29.70,West,270,0.0,0.2,89,0.00,,,0.00,WUHU216HW,2013-03-29 11:48:00,
2013-03-29 05:00:00,49.5,46.1,29.73,West,270,0.0,0.0,88,0.00,,,0.00,WUHU216HW,2013-03-29 12:00:00,
2013-03-29 05:05:00,49.5,46.1,29.70,West,270,0.0,0.0,88,0.00,,,0.00,WUHU216HW,2013-03-29 12:05:00,
2013-03-29 05:10:00,49.5,46.1,29.70,West,270,0.0,0.0,88,0.00,,,0.00,WUHU216HW,2013-03-29 12:10:00,
2013-03-29 05:37:00,49.3,46.2,29.75,West,270,0.0,0.0,89,0.00,,,0.00,WUHU216HW,2013-03-29 12:37:00,
2013-03-29 05:42:00,49.3,46.2,29.72,West,270,0.0,0.0,89,0.00,,,0.00,WUHU216HW,2013-03-29 12:42:00,
2013-03-29 05:47:00,49.3,46.2,29.72,West,270,0.0,0.0,89,0.00,,,0.00,WUHU216HW,2013-03-29 12:47:00,
2013-03-29 06:32:00,49.3,46.2,29.75,West,270,0.0,0.0,89,0.00,,,0.00,WUHU216HW,2013-03-29 13:32:00,
2013-03-29 06:37:00,49.3,46.2,29.73,West,270,0.0,0.0,89,0.00,,,0.00,WUHU216HW,2013-03-29 13:37:00,
2013-03-29 06:42:00,49.3,46.2,29.73,West,270,0.0,0.0,89,0.00,,,0.00,WUHU216HW,2013-03-29 13:42:00,
2013-03-29 07:00:00,49.5,46.4,29.75,West,270,0.0,0.0,89,0.00,,,0.00,WUHU216HW,2013-03-29 14:00:00,
2013-03-29 07:02:00,49.5,46.4,29.74,West,270,0.0,0.0,89,0.00,,,0.00,WUHU216HW,2013-03-29 14:02:00,
2013-03-29 07:05:00,49.5,46.4,29.74,West,270,0.0,0.0,89,0.00,,,0.00,WUHU216HW,2013-03-29 14:05:00,
2013-03-29 07:10:00,49.5,46.4,29.74,West,270,0.0,0.0,89,0.00,,,0.00,WUHU216HW,2013-03-29 14:10:00,
2013-03-29 07:35:00,49.7,46.8,29.76,West,270,0.0,0.0,90,0.00,,,0.00,WUHU216HW,2013-03-29 14:35:00,
2013-03-29 07:40:00,49.9,47.0,29.71,West,270,0.0,0.0,90,0.00,,,0.00,WUHU216HW,2013-03-29 14:40:00,
2013-03-29 07:45:00,49.9,47.0,29.71,West,270,0.0,0.0,90,0.00,,,0.00,WUHU216HW,2013-03-29 14:45:00,
2013-03-29 08:00:00,50.4,47.5,29.76,SSW,203,0.0,0.0,90,0.00,,,0.00,WUHU216HW,2013-03-29 15:00:00,
2013-03-29 08:05:00,50.6,47.7,29.74,SSW,203,0.0,0.0,90,0.00,,,0.00,WUHU216HW,2013-03-29 15:05:00,
2013-03-29 08:10:00,50.6,47.7,29.74,SSW,203,0.0,0.0,90,0.00,,,0.00,WUHU216HW,2013-03-29 15:10:00,
2013-03-29 08:38:00,52.9,49.8,29.76,ESE,113,0.0,0.0,89,0.00,,,0.00,WUHU216HW,2013-03-29 15:38:00,
2013-03-29 08:43:00,53.1,49.9,29.74,ESE,113,0.0,0.0,89,0.00,,,0.00,WUHU216HW,2013-03-29 15:43:00,
2013-03-29 08:48:00,53.1,49.9,29.74,ESE,113,0.0,0.0,89,0.00,,,0.00,WUHU216HW,2013-03-29 15:48:00,
2013-03-29 09:00:00,55.8,51.7,29.76,ESE,113,0.0,0.0,86,0.00,,,0.00,WUHU216HW,2013-03-29 16:00:00,
2013-03-29 09:05:00,56.0,51.9,29.74,ESE,113,0.0,0.0,86,0.00,,,0.00,WUHU216HW,2013-03-29 16:05:00,
2013-03-29 09:10:00,56.0,51.9,29.74,ESE,113,0.0,0.0,86,0.00,,,0.00,WUHU216HW,2013-03-29 16:10:00,
2013-03-29 09:36:00,56.5,51.4,29.77,East,90,0.4,0.4,83,0.00,,,0.00,WUHU216HW,2013-03-29 16:36:00,
2013-03-29 09:41:00,56.5,51.4,29.76,East,90,0.0,0.4,83,0.00,,,0.00,WUHU216HW,2013-03-29 16:41:00,
2013-03-29 09:46:00,56.5,51.4,29.76,East,90,0.0,0.4,83,0.00,,,0.00,WUHU216HW,2013-03-29 16:46:00,
2013-03-29 10:00:00,59.0,53.3,29.77,ESE,113,0.0,0.0,81,0.00,,,0.00,WUHU216HW,2013-03-29 17:00:00,
2013-03-29 10:05:00,59.4,53.3,29.76,ESE,113,0.0,0.0,80,0.00,,,0.00,WUHU216HW,2013-03-29 17:05:00,
2013-03-29 10:10:00,59.4,53.3,29.76,ESE,113,0.0,0.0,80,0.00,,,0.00,WUHU216HW,2013-03-29 17:10:00,
2013-03-29 10:38:00,63.5,53.6,29.77,West,270,0.2,0.2,70,0.00,,,0.00,WUHU216HW,2013-03-29 17:38:00,
2013-03-29 10:43:00,63.7,54.3,29.76,NNW,338,0.0,0.4,71,0.00,,,0.00,WUHU216HW,2013-03-29 17:43:00,
2013-03-29 10:48:00,63.7,54.3,29.76,NNW,338,0.0,0.4,71,0.00,,,0.00,WUHU216HW,2013-03-29 17:48:00,
2013-03-29 11:00:00,65.0,53.3,29.77,West,270,0.7,0.7,66,0.00,,,0.00,WUHU216HW,2013-03-29 18:00:00,
2013-03-29 11:02:00,64.4,53.8,29.74,West,270,0.0,0.2,68,0.00,,,0.00,WUHU216HW,2013-03-29 18:02:00,
2013-03-29 11:05:00,64.4,53.8,29.74,West,270,0.0,1.1,68,0.00,,,0.00,WUHU216HW,2013-03-29 18:05:00,
2013-03-29 11:10:00,64.4,53.8,29.74,West,270,0.0,1.1,68,0.00,,,0.00,WUHU216HW,2013-03-29 18:10:00,
2013-03-29 11:34:00,66.8,53.4,29.78,WNW,293,0.7,0.7,62,0.00,,,0.00,WUHU216HW,2013-03-29 18:34:00,
2013-03-29 11:40:00,66.2,53.0,29.76,West,270,0.2,1.8,62,0.00,,,0.00,WUHU216HW,2013-03-29 18:40:00,
2013-03-29 11:45:00,66.2,53.0,29.76,West,270,0.2,1.8,62,0.00,,,0.00,WUHU216HW,2013-03-29 18:45:00,
2013-03-29 12:00:00,67.9,54.4,29.77,SE,135,0.0,0.0,62,0.00,,,0.00,WUHU216HW,2013-03-29 19:00:00,
2013-03-29 12:05:00,67.9,53.9,29.73,SE,135,0.4,0.4,61,0.00,,,0.00,WUHU216HW,2013-03-29 19:05:00,
2013-03-29 12:10:00,67.9,53.9,29.73,SE,135,0.4,0.4,61,0.00,,,0.00,WUHU216HW,2013-03-29 19:10:00,
2013-03-29 12:35:00,66.6,53.7,29.77,West,270,0.0,0.0,63,0.00,,,0.00,WUHU216HW,2013-03-29 19:35:00,
2013-03-29 12:40:00,66.4,53.6,29.70,ENE,68,0.4,0.9,63,0.00,,,0.00,WUHU216HW,2013-03-29 19:40:00,
2013-03-29 12:45:00,66.4,53.6,29.70,ENE,68,0.4,0.9,63,0.00,,,0.00,WUHU216HW,2013-03-29 19:45:00,
2013-03-29 13:00:00,67.7,53.7,29.76,SSE,158,0.4,0.4,61,0.00,,,0.00,WUHU216HW,2013-03-29 20:00:00,
2013-03-29 13:05:00,67.7,53.9,29.74,West,270,0.0,0.7,61,0.00,,,0.00,WUHU216HW,2013-03-29 20:05:00,
2013-03-29 13:10:00,67.7,53.9,29.74,West,270,0.0,0.7,61,0.00,,,0.00,WUHU216HW,2013-03-29 20:10:00,
2013-03-29 13:38:00,71.1,54.5,29.76,ESE,113,1.1,1.1,56,0.00,,,0.00,WUHU216HW,2013-03-29 20:38:00,
2013-03-29 13:43:00,71.3,54.4,29.74,East,90,1.6,1.6,55,0.00,,,0.00,WUHU216HW,2013-03-29 20:43:00,
2013-03-29 13:48:00,71.3,54.4,29.74,East,90,1.6,1.6,55,0.00,,,0.00,WUHU216HW,2013-03-29 20:48:00,
2013-03-29 14:00:00,70.6,54.1,29.75,ESE,113,1.3,1.3,56,0.00,,,0.00,WUHU216HW,2013-03-29 21:00:00,
2013-03-29 14:05:00,70.4,53.6,29.74,East,90,0.4,1.3,55,0.00,,,0.00,WUHU216HW,2013-03-29 21:05:00,
2013-03-29 14:10:00,70.4,53.6,29.74,East,90,0.4,0.9,55,0.00,,,0.00,WUHU216HW,2013-03-29 21:10:00,
2013-03-29 14:36:00,67.3,53.0,29.74,West,270,0.7,0.7,60,0.00,,,0.00,WUHU216HW,2013-03-29 21:36:00,
2013-03-29 14:41:00,67.3,53.1,29.69,SSW,203,0.4,0.9,60,0.00,,,0.00,WUHU216HW,2013-03-29 21:41:00,
2013-03-29 14:46:00,67.3,53.1,29.69,SSW,203,0.4,0.9,60,0.00,,,0.00,WUHU216HW,2013-03-29 21:46:00,
2013-03-29 15:00:00,69.7,53.7,29.73,West,270,0.4,0.4,57,0.00,,,0.00,WUHU216HW,2013-03-29 22:00:00,
2013-03-29 15:05:00,70.4,53.6,29.71,WNW,293,1.1,1.1,55,0.00,,,0.00,WUHU216HW,2013-03-29 22:05:00,
2013-03-29 15:10:00,70.4,53.6,29.71,WNW,293,1.1,1.1,55,0.00,,,0.00,WUHU216HW,2013-03-29 22:10:00,
2013-03-29 15:38:00,69.8,53.5,29.73,West,270,0.2,0.2,56,0.00,,,0.00,WUHU216HW,2013-03-29 22:38:00,
2013-03-29 15:43:00,69.5,53.7,29.70,East,90,0.0,0.9,57,0.00,,,0.00,WUHU216HW,2013-03-29 22:43:00,
2013-03-29 15:48:00,69.5,53.7,29.70,East,90,0.0,0.9,57,0.00,,,0.00,WUHU216HW,2013-03-29 22:48:00,
2013-03-29 16:00:00,70.2,53.7,29.72,ESE,113,0.9,0.9,56,0.00,,,0.00,WUHU216HW,2013-03-29 23:00:00,
2013-03-29 16:05:00,70.2,53.4,29.66,ESE,113,0.9,1.6,55,0.00,,,0.00,WUHU216HW,2013-03-29 23:05:00,
2013-03-29 16:10:00,70.2,53.4,29.66,ESE,113,0.9,1.6,55,0.00,,,0.00,WUHU216HW,2013-03-29 23:10:00,
2013-03-29 16:43:00,69.8,53.9,29.72,West,270,1.1,1.1,57,0.00,,,0.00,WUHU216HW,2013-03-29 23:43:00,
2013-03-29 16:48:00,70.2,54.4,29.69,West,270,0.7,1.1,57,0.00,,,0.00,WUHU216HW,2013-03-29 23:48:00,
2013-03-29 16:53:00,70.2,54.4,29.42,West,270,0.4,0.9,57,0.00,,,0.00,WUHU216HW,2013-03-29 23:53:00,
2013-03-29 16:58:00,70.2,54.4,29.42,West,270,0.4,0.9,57,0.00,,,0.00,WUHU216HW,2013-03-29 23:58:00,
2013-03-29 17:03:00,70.0,54.1,29.67,East,90,0.9,0.9,57,0.00,,,0.00,WUHU216HW,2013-03-30 00:03:00,
2013-03-29 17:08:00,70.0,54.1,29.67,East,90,0.9,0.9,57,0.00,,,0.00,WUHU216HW,2013-03-30 00:08:00,
2013-03-29 17:35:00,68.4,53.0,29.71,West,270,0.0,0.0,58,0.00,,,0.00,WUHU216HW,2013-03-30 00:35:00,
2013-03-29 17:40:00,68.4,53.7,29.69,East,90,0.7,1.1,59,0.00,,,0.00,WUHU216HW,2013-03-30 00:40:00,
2013-03-29 17:45:00,68.4,53.7,29.69,East,90,0.7,1.1,59,0.00,,,0.00,WUHU216HW,2013-03-30 00:45:00,
2013-03-29 18:00:00,67.7,53.3,29.71,West,270,0.0,0.0,60,0.00,,,0.00,WUHU216HW,2013-03-30 01:00:00,
2013-03-29 18:05:00,67.3,53.1,29.68,WSW,248,0.0,0.4,60,0.00,,,0.00,WUHU216HW,2013-03-30 01:05:00,
2013-03-29 18:10:00,67.3,53.1,29.68,West,270,0.2,0.4,60,0.00,,,0.00,WUHU216HW,2013-03-30 01:10:00,
2013-03-29 18:50:00,66.6,53.2,29.70,West,270,0.0,0.0,62,0.00,,,0.00,WUHU216HW,2013-03-30 01:50:00,
2013-03-29 18:55:00,66.4,53.2,29.60,West,270,0.0,0.4,62,0.00,,,0.00,WUHU216HW,2013-03-30 01:55:00,
2013-03-29 18:56:00,66.4,53.2,29.65,West,270,0.0,0.0,62,0.00,,,0.00,WUHU216HW,2013-03-30 01:56:00,
2013-03-29 19:00:00,66.4,53.2,29.65,West,270,0.0,0.4,62,0.00,,,0.00,WUHU216HW,2013-03-30 02:00:00,
2013-03-29 19:05:00,66.4,53.2,29.65,West,270,0.0,0.2,62,0.00,,,0.00,WUHU216HW,2013-03-30 02:05:00,
2013-03-29 19:42:00,63.2,52.0,29.70,West,270,0.0,0.0,67,0.00,,,0.00,WUHU216HW,2013-03-30 02:42:00,
2013-03-29 19:48:00,62.8,51.8,29.67,West,270,0.0,0.0,67,0.00,,,0.00,WUHU216HW,2013-03-30 02:48:00,
2013-03-29 19:53:00,62.5,51.9,29.67,West,270,0.0,0.0,68,0.00,,,0.00,WUHU216HW,2013-03-30 02:53:00,
2013-03-29 19:56:00,62.3,51.6,29.32,West,270,0.0,0.0,68,0.00,,,0.00,WUHU216HW,2013-03-30 02:56:00,
2013-03-29 19:58:00,62.3,51.6,29.32,West,270,0.0,0.0,68,0.00,,,0.00,WUHU216HW,2013-03-30 02:58:00,
2013-03-29 20:03:00,62.3,51.6,29.32,West,270,0.0,0.0,68,0.00,,,0.00,WUHU216HW,2013-03-30 03:03:00,
2013-03-29 20:39:00,59.8,50.0,29.71,West,270,0.0,0.0,70,0.00,,,0.00,WUHU216HW,2013-03-30 03:39:00,
2013-03-29 20:44:00,59.6,49.9,29.67,West,270,0.0,0.0,70,0.00,,,0.00,WUHU216HW,2013-03-30 03:44:00,
2013-03-29 20:49:00,59.6,49.9,29.67,West,270,0.0,0.0,70,0.00,,,0.00,WUHU216HW,2013-03-30 03:49:00,
2013-03-29 21:00:00,59.0,50.0,29.71,West,270,0.0,0.0,72,0.00,,,0.00,WUHU216HW,2013-03-30 04:00:00,
2013-03-29 21:05:00,58.9,50.0,29.64,West,270,0.0,0.0,72,0.00,,,0.00,WUHU216HW,2013-03-30 04:05:00,
2013-03-29 21:10:00,58.9,50.0,29.64,West,270,0.0,0.0,72,0.00,,,0.00,WUHU216HW,2013-03-30 04:10:00,
2013-03-29 21:40:00,57.4,49.1,29.73,West,270,0.0,0.0,74,0.00,,,0.00,WUHU216HW,2013-03-30 04:40:00,
2013-03-29 21:45:00,57.2,49.1,29.70,West,270,0.0,0.0,74,0.00,,,0.00,WUHU216HW,2013-03-30 04:45:00,
2013-03-29 21:50:00,57.2,49.1,29.70,West,270,0.0,0.0,74,0.00,,,0.00,WUHU216HW,2013-03-30 04:50:00,
2013-03-29 22:00:00,56.3,49.1,29.73,West,270,0.0,0.0,77,0.00,,,0.00,WUHU216HW,2013-03-30 05:00:00,
2013-03-29 22:05:00,56.2,49.2,29.66,West,270,0.0,0.0,77,0.00,,,0.00,WUHU216HW,2013-03-30 05:05:00,
2013-03-29 22:10:00,56.2,49.2,29.66,West,270,0.0,0.0,77,0.00,,,0.00,WUHU216HW,2013-03-30 05:10:00,
2013-03-29 22:41:00,54.4,48.3,29.73,West,270,0.0,0.0,80,0.00,,,0.00,WUHU216HW,2013-03-30 05:41:00,
2013-03-29 22:46:00,54.2,48.2,29.68,West,270,0.0,0.0,80,0.00,,,0.00,WUHU216HW,2013-03-30 05:46:00,
2013-03-29 22:51:00,54.2,48.2,29.68,West,270,0.0,0.0,80,0.00,,,0.00,WUHU216HW,2013-03-30 05:51:00,
2013-03-29 23:00:00,53.6,47.3,29.73,West,270,0.0,0.0,79,0.00,,,0.00,WUHU216HW,2013-03-30 06:00:00,
2013-03-29 23:01:00,53.6,47.3,29.70,West,270,0.0,0.0,79,0.00,,,0.00,WUHU216HW,2013-03-30 06:01:00,
2013-03-29 23:05:00,53.6,47.3,29.70,West,270,0.0,0.0,79,0.00,,,0.00,WUHU216HW,2013-03-30 06:05:00,
2013-03-29 23:10:00,53.6,47.3,29.70,West,270,0.0,0.0,79,0.00,,,0.00,WUHU216HW,2013-03-30 06:10:00,
2013-03-29 23:34:00,52.7,46.8,29.74,West,270,0.0,0.0,80,0.00,,,0.00,WUHU216HW,2013-03-30 06:34:00,
2013-03-29 23:36:00,52.6,46.6,29.69,West,270,0.0,0.0,80,0.00,,,0.00,WUHU216HW,2013-03-30 06:36:00,
2013-03-29 23:39:00,52.6,46.6,29.69,West,270,0.0,0.0,80,0.00,,,0.00,WUHU216HW,2013-03-30 06:39:00,
2013-03-29 23:44:00,52.6,46.6,29.69,West,270,0.0,0.0,80,0.00,,,0.00,WUHU216HW,2013-03-30 06:44:00,